Regional Weather Roundup
Issued by NWS Portland, ME

Home | Current Version | Previous Version | Text Only | Print | Product List | Glossary On
Versions: 1 2 3 4 5 6 7 8 9 10 11 12 13 14 15 16 17 18 19 20 21 22 23 24 25 26 27 28 29 30 31 32 33 34 35 36 37 38 39 40 41 42 43 44 45 46 47 48 49 50
000
ASUS41 KGYX 270310
RWRGYX
WEATHER ROUNDUP FOR MAINE AND NEW HAMPSHIRE
NATIONAL WEATHER SERVICE GRAY ME
1000 PM EST FRI DEC 26 2014

MEZ002-005-006-010-012-015-018-020-021-024-026-027-029-270400-
MAINE

CITY           SKY/WX    TMP DP  RH WIND       PRES   REMARKS
PORTLAND       CLEAR     38  29  70 W3        30.09S
SANFORD        CLEAR     34  23  64 SW10      30.11S
BAR HARBOR     CLOUDY    37  30  75 W5        30.06S
WISCASSET      CLEAR     28  25  88 CALM      30.10S
ROCKLAND       CLEAR     30  25  80 W3        30.07S
FRYEBURG       PTCLDY    36  27  69 SW7       30.08S
LEWISTONAUBURN CLEAR     27  21  80 CALM      30.07S
AUGUSTA        PTCLDY    38  26  62 NW8       30.08R
WATERVILLE     CLOUDY    37  27  65 CALM      30.04S
BANGOR         CLOUDY    39  29  67 S3        30.05S
GREENVILLE       N/A     35  26  69 VRB6G18   29.95F
MILLINOCKET    CLOUDY    40  28  62 W7        29.98F
HOULTON        CLOUDY    38  25  59 W8        29.93R
PRESQUE ISLE   CLOUDY    37  21  52 W5        29.91R
FRENCHVILLE    CLOUDY    31  20  63 W8        29.85R
CARIBOU        CLOUDY    34  23  64 SW9       29.89S
$$

NHZ002-005-008-009-011-012-014-270400-
NEW HAMPSHIRE

CITY           SKY/WX    TMP DP  RH WIND       PRES   REMARKS
PORTSMOUTH     PTCLDY    37  28  71 SW7       30.12R
ROCHESTER      FAIR      38  27  64 VRB5      30.11R
NASHUA         CLEAR     38  28  67 CALM      30.16R
MANCHESTER     PTCLDY    38  27  64 CALM      30.13R
CONCORD        CLEAR     28  26  92 CALM      30.14R
PLYMOUTH       MOCLDY    28  28 100 CALM      30.12S FOG
BERLIN         CLOUDY    38  26  62 VRB7      30.07R
WHITEFIELD     CLOUDY    31  27  85 S3        30.10S
JAFFREY        FAIR      30  27  88 S3        30.14R
KEENE          CLEAR     28  25  86 CALM      30.16S
LEBANON        PTCLDY    28  26  92 CALM      30.14S
MT WASHINGTON  FOG       16  16 100 NW48        N/A  VSB 1/16WCI  -8
$$

VTZ005-007-008-270400-
VERMONT

CITY           SKY/WX    TMP DP  RH WIND       PRES   REMARKS
ST JOHNSBURY     N/A     32  28  85 MISG      30.10F
MONTPELIER     CLOUDY    34  28  79 CALM      30.14S
BURLINGTON     CLOUDY    38  28  67 CALM      30.12F
$$

MAZ007-012-024-CTZ003-RIZ002-NYZ038-NYZ072-270400-
SOUTHERN NEW ENGLAND AND NY

CITY           SKY/WX    TMP DP  RH WIND       PRES   REMARKS
BOSTON         PTCLDY    43  29  57 W10       30.16R
WORCESTER      CLEAR     34  27  75 W9        30.14F
NANTUCKET      CLEAR     42  37  82 W9        30.17S
PROVIDENCE     CLEAR     35  28  75 CALM      30.18S
HARTFORD       PTCLDY    32  26  78 CALM      30.18S
ALBANY         PTCLDY    28  25  88 CALM      30.19S
NEW YORK CITY  CLEAR     46  29  51 W12       30.22S
$$

ANZ081-ANZ082-ANZ150-NHZ014-MEZ023>029-270400-
COASTAL MARINE OBSERVATIONS

STATION/POSITION TIME  TEMP    WIND        PRES    WAVE
                       AIR SEA DIR/SP/G            HT/PER
                 (UTC) (F)     (DEG/KT/KT) (MB)    (FT/S)
MOUNT DESERT ROC 0300   45                 1017.6R
MATINICUS ROCK   0200          260/ 14/ 15 1017.8R
PORTLAND WX BUOY 0250   42 42  280/ 14/ 16 1018.7S   2/ 9
WELLS            0200   40 41  260/  2/  6 1018.5F
ISLE OF SHOALS   0200   42     250/ 14/ 15 1019.1F
JEFFREYS LEDGE   0221      48                N/A     3/ 4
CASHES LEDGE BUO 0250   47 48  270/ 19/ 23 1018.2F   5/ 5
$$

.............KEY..............
   WCI - WIND CHILL
   TC  - TEMPERATURE IN CELSIUS
   VSB - VISIBILITY IN MILES
   HX  - HEAT INDEX
   FAIR- INDICATES FEW OR NO CLOUDS BELOW 12,000 FT, WITH NO
         SIGNIFICANT WEATHER AND/OR OBSTRUCTIONS TO VISIBILITY.




USA.gov is the U.S. government's official web portal to all federal, state and local government web resources and services.